Flag for U.S.A. Weather past 2 weeks in Portsmouth, Virginia, U.S.A.

Now
80 °F

Passing clouds.


Feels Like: 85 °F
Forecast: 75 / 88 °F
Wind: 9 mph from Southwest

Location: Norfolk Naval Air Station

Current Time: Jul 31, 2015 at 2:08:32 AM

Latest Report: Jul 31, 2015 at 12:59 AM


Visibility: 10 mi

Pressure: 29.90 "Hg

Humidity: 81%

Dew point: 74 °F

Location of PortsmouthLocation

Historic Weather in Portsmouth — Graph

°F

Portsmouth temperature yesterday

Maximum temperature yesterday: 91 °F (at 4:59 PM)
Minimum temperature yesterday: 72 °F (at 5:59 AM)
Average temperature yesterday: 82 °F

Past Weeks' High & Low Weather Summary

 TemperatureHumidityPressure
High93 °F (Jul 20, 2:59 PM)94% (Jul 16, 1:59 AM)30.10 "Hg (Jul 16, 1:59 AM)
Low65 °F (Jul 26, 3:59 AM)31% (Jul 26, 3:59 PM)29.63 "Hg (Jul 21, 3:59 PM)
Average80 °F72%29.95 "Hg
* Reported Jul 16 12:59 AM — Jul 31 12:59 AM, Portsmouth, Weather by CustomWeather, © 2015

Note: Actual official high and low records may vary slightly from our data, if they occured in-between our weather recording intervals... More about our weather records

Advertising

Portsmouth weather history for previous 24 hours

 ConditionsComfort  
Time TempWeatherWind HumidityBarometerVisibility
12:59 AM
Fri, Jul 31
80 °FPassing clouds.9 mph81%29.90 "Hg10 mi
11:59 PM
Thu, Jul 30
81 °FPassing clouds.9 mph82%29.90 "Hg10 mi
10:59 PM83 °FPartly cloudy.9 mph77%29.90 "Hg10 mi
9:59 PM85 °FPassing clouds.5 mph72%29.90 "Hg10 mi
8:59 PM85 °FBroken clouds.6 mph68%29.88 "Hg10 mi
7:59 PM86 °FPartly sunny.5 mph65%29.88 "Hg10 mi
6:59 PM87 °FPartly sunny.3 mph67%29.86 "Hg10 mi
5:59 PM89 °FPartly sunny.No wind59%29.87 "Hg10 mi
4:59 PM91 °FBroken clouds.7 mph57%29.87 "Hg10 mi
3:59 PM90 °FScattered clouds.5 mph61%29.88 "Hg10 mi
2:59 PM90 °FScattered clouds.7 mph61%29.90 "Hg10 mi
1:59 PM89 °FScattered clouds.8 mph63%29.93 "Hg10 mi
12:59 PM87 °FScattered clouds.7 mph67%29.96 "Hg10 mi
11:59 AM85 °FScattered clouds.6 mph65%29.97 "Hg10 mi
10:59 AM86 °FScattered clouds.5 mph61%29.96 "Hg10 mi
9:59 AM84 °FScattered clouds.7 mph70%29.97 "Hg10 mi
8:59 AM82 °FScattered clouds.3 mph77%29.97 "Hg10 mi
7:59 AM79 °FPassing clouds.5 mph82%29.97 "Hg10 mi
6:59 AM74 °FPassing clouds.No wind91%29.97 "Hg10 mi
5:59 AM72 °FPassing clouds.No wind91%29.96 "Hg10 mi
4:59 AM73 °FPassing clouds.No wind88%29.96 "Hg10 mi
3:59 AM73 °FPassing clouds.No wind88%29.97 "Hg10 mi
2:59 AM76 °FPassing clouds.5 mph82%29.97 "Hg10 mi
Weather by CustomWeather, © 2015

See weather overviewHow to use our weather pages